DELTA 1 DEB, 26830

Orbit data source: Space-Track

DELTA 1 DEB, 26830 is space debris in SSO originally from a launch on Thu, 12 Jun 1975 UTC launched from the Air Force Western Test Range (AFWTR). Debris objects in space refer to the collection of defunct objects orbiting the Earth. Examples of debris include non-operational satellites, rocket bodies, and fragments generated from explosions, collisions, or faulty payload assembly.

Loading next visibility...
Identifier
26830, 1975-052KJ
Orbit
SSO
Country
Flag of USUS
Related business
Manufacturer
Unknown
Mission
Spacecraft
Bus & Motor
Unknown
Mass
Unknown
Launch date (UTC)
1975-06-12 (50 years ago)
Launch vehicle
Unknown
Launch site
Air Force Western Test Range (AFWTR)
Object type
Payload
Rocket body
Debris
Shape & HBR
Unknown shape, 0.1 m
Radar Cross Section
Small (<0.1 m²)

Expand to show TLE details & history
Last TLE update: 19 hours ago

TLE from 19 hours ago
0 DELTA 1 DEB
1 26830U 75052KJ  25287.92240476  .00000682  00000-0  15992-2 0  9990
2 26830  99.6964  82.9438 0136487 337.6709 178.6436 13.24502817642260
Epoch: 2025-10-14T22:08Z
TLE epoch observation values (Epoch: 2025-10-14T22:08:15.771Z)
Latitude
23.31086°
Longitude
-88.62468°
Altitude
1,273.229 km
Speed
7.172 km/s
True Right ascension
17h 48m 34s
True Declination
23° 11' 40"
Sunlit
Object was in daylight at epoch
Visualization orbit readout
Latitude
Unknown
Longitude
Unknown
Altitude
Unknown
Speed
Unknown
Apparent Right ascension
Unknown
Apparent Declination
Unknown
Sunlit
N/A
Visualization observer readout
Local Sidereal Time
11:55:49
Azimuth
Unknown
Elevation
Unknown
Doppler factor
Unknown
Orbital elements
Apogee altitude
1,267.857 km
Perigee altitude
1,061.952 km
Semi-major axis
7,543.041 km
Eccentricity
0.01365
Inclination
99.6964°
RAAN
82.9438°
Arg. of periapsis
337.6709°
True anomaly
178.68°
Mean anomaly
178.6436°
Eccentric anomaly
178.66186°
Mean motion
3.31302 °/min
Orbital period
108.66 mins
BSTAR
0.0015992
Loading maneuver chart data...
Computing Atmospheric mass density...

Documentation

Showing up to 5 results
|